Location: Branche des Alpilles
(43.6087°N, 4.6976°E)
Time: 04:18:38
(UTC+00:00)

Cosmos 1606 - Pass Details

Date: 30 November 2020
Orbit: 503 x 527 km, 82.5° (Epoch: 24 January)

Event Time Altitude Azimuth Distance (km) Brightness Sun altitude
Rises 17:02:50 0° 200° (SSW) 2,651 6.9 -10.1°
Reaches altitude 10° 17:05:01 10° 206° (SSW) 1,767 6.1 -10.5°
Maximum altitude 17:08:47 48° 281° (W) 697 3.8 -11.2°
Drops below altitude 10° 17:12:34 10° 357° (N) 1,776 5.3 -11.8°
Sets 17:14:46 0° 3° (N) 2,667 6.1 -12.2°
